2018-092B (43705 NORAD) Tracking and Keplerian Element Data

This shows tracking and keplerian element data for the satellite.

Feedback or suggestion? Click here.




ElementValue
Catalog43705
Name2018-092B
Epoch Orbit178
Epoch Day332.38339838
Epoch Year2018
RAAN275.0334
Inclination51.5918
Eccentricity0.0009375
Argument of Perigee200.789
Mean Anonmoly159.317
Mean Motion16.45397611
Decay Rate0.11699323
L11 43705U 18092B 18332.38339838 .11699323 12403-4 28612-3 0 9991
L22 43705 51.5918 275.0334 0009375 200.7890 159.3170 16.45397611 1789



Live tracking and technical data element details for 2018-092B (NORAD 43705). 2018-092B can be tracked NOW for your location showing map with azimuth and elevation plus other details from your city location.







IsCatalogInMostPopularTable: catalog: 43705, numindb: 503
Update: records affected: 1



GetName: 43705 2018-092B

Hit Count: updated at: Thu, 15 May 2025 18:28:13 GMT